PROFILE

 METAR AND TAF INFORMATION
ADDS - METARS form results

(0745 UTC 19 August 2019)
http://aviationweather.gov/metar/data/
 
MHTG 190700Z 25004KT 9999 BKN026 18/16 Q1020 A3012 NOSIG
TAF MHTG 190430Z 1906/2006 00000KT 9999 SCT026 SCT080 TX29/1920Z TX16/1912Z BECMG 1912/1914 02006KT FEW007 SCT024 BECMG 1916/1918 07010KT SCT030TCU SCT080 TEMPO 1921/2001 7000 -TSRA SCT028TCU FEW030CB SCT080 BECMG 2001/2003 00000KT 9999 NSW SCT026 SCT080 

 AIRPORT MAP

 RUNWAY INFORMATION
Runway 02 Runway length 6112 ft Runway width 148 ft
Runway elevation 3337 ft Runway displaced threshold 670 ft Runway heading 19
Runway 20 Runway length 6112 ft Runway width 148 ft
Runway elevation 3268 ft Runway displaced threshold 0 ft Runway heading 199

 AIRPORT FREQUENCIES
Type APP Name TONCONTIN Frequency 119.1 MHZ
Type ATIS Name ATIS Frequency 112.3 MHZ
Type GND Name GND Frequency 121.9 MHZ
Type RDO Name TEGUCIGALP Frequency 126.7 MHZ
Type TWR Name TWR Frequency 118.7 MHZ

 AIRPORT NEAR NAVIGATION AIDS
Type NDB Name Picacho Frequency 334 KHZ
Type VOR-DME Name Toncontin Frequency 112300 KHZ
Type NDB Name Toncontin Frequency 405 KHZ